Find Starlink 11595

NORAD ID: 63669 Int'l Des: 2025-085 Owner: SPXS Country: US Constellation: starlink operational
LEOCIRCULAR

現在のビュー

3D地球を読み込み中...

About Starlink 11595

Starlink 11595 (NORAD 63669) is a starlink constellation satellite (v2 mini d2c) launched Apr 28, 2025 by SPXS of US. It operates in LEO, CIRCULAR orbit with a mass of 960.00 kg.

Starlink 11595について

説明を読み込み中...

次回通過

Passes for default location (London). Set your location on the main map for personalized predictions.

高度履歴

Loading altitude history...

軌道要素

1 63669U 25085F 26171.27813687 .00148487 00000-0 11341-2 0 9993
2 63669 43.0016 20.2911 0004806 263.5460 96.4860 15.70956600 67022
Epoch: Jun 20, 2026 • Age: 30 hours

現在のステータス

高度 364.2 km
速度 7.69 km/s
衛星直下点 -40.11°S, 156.07°E
打ち上げ日 Apr 28, 2025
運用期間 1.1 years
タイプ internet

技術仕様

分類 Payload
質量 960.00 kg
乾燥質量 910.00 kg
総質量 960.00 kg
長さ 0.30 m
直径 4.10 m
スパン 29.00 m
形状 Box + pan
製造者 SPXS
バスタイプ Starlink V2MD
フェーズステータス In Orbit
所有者/国 SPXS/US

Most Searched